• In Belarus
  • List of Countries
  • For 7 days
  • Water Temperature
  • Satellite Maps
  • Weather Map
  • Weather Widgets
  • user-avatar
    Login

    Hourly Weather Porokhon'

    Today, 26 April, Friday

    Time Temperature Precipitation Wind Pressure Humidity
    00:00 +16°C° 0 mm 2 mps 749 mmHg 54%
    01:00 +15°C° 0 mm 2 mps 749 mmHg 55%
    02:00 +14°C° 0 mm 2 mps 749 mmHg 54%
    03:00 +14°C° 0 mm 1 mps 749 mmHg 57%
    04:00 +13°C° 0 mm 1 mps 749 mmHg 59%
    05:00 +13°C° 0 mm 1 mps 749 mmHg 61%
    06:00 +14°C° 0 mm 1 mps 749 mmHg 58%
    07:00 +16°C° 0 mm 1 mps 749 mmHg 54%
    08:00 +19°C° 0 mm 1 mps 749 mmHg 48%
    09:00 +21°C° 0 mm 1 mps 749 mmHg 44%
    10:00 +21°C° 0 mm 0 mps 748 mmHg 39%
    11:00 +22°C° 0 mm 0 mps 748 mmHg 34%
    12:00 +24°C° 0 mm 1 mps 748 mmHg 35%
    13:00 +24°C° 0 mm 1 mps 748 mmHg 36%
    14:00 +23°C° 0 mm 2 mps 748 mmHg 36%
    15:00 +23°C° 0 mm 2 mps 747 mmHg 41%
    16:00 +21°C° 0 mm 2 mps 747 mmHg 46%
    17:00 +21°C° 0 mm 1 mps 747 mmHg 51%
    18:00 +20°C° 0 mm 1 mps 747 mmHg 51%
    19:00 +18°C° 0 mm 2 mps 747 mmHg 52%
    20:00 +18°C° 0 mm 2 mps 746 mmHg 53%
    21:00 +16°C° 0 mm 2 mps 746 mmHg 56%
    22:00 +15°C° 0 mm 2 mps 746 mmHg 59%
    23:00 +14°C° 0 mm 2 mps 746 mmHg 62%

    Tomorrow, 27 April, Saturday

    Time Temperature Precipitation Wind Pressure Humidity
    00:00 +13°C° 0 mm 2 mps 746 mmHg 60%
    01:00 +13°C° 0 mm 2 mps 746 mmHg 58%
    02:00 +12°C° 0 mm 2 mps 745 mmHg 56%
    03:00 +12°C° 0 mm 2 mps 745 mmHg 58%
    04:00 +12°C° 0 mm 2 mps 745 mmHg 59%
    05:00 +10°C° 0 mm 2 mps 744 mmHg 61%
    06:00 +12°C° 0 mm 3 mps 744 mmHg 60%
    07:00 +14°C° 0 mm 3 mps 744 mmHg 59%
    08:00 +17°C° 0 mm 3 mps 744 mmHg 57%
    09:00 +18°C° 0 mm 4 mps 744 mmHg 54%
    10:00 +19°C° 0 mm 4 mps 744 mmHg 51%
    11:00 +21°C° 0 mm 5 mps 744 mmHg 48%
    12:00 +21°C° 0 mm 5 mps 743 mmHg 47%
    13:00 +21°C° 0 mm 5 mps 743 mmHg 46%
    14:00 +21°C° 0 mm 5 mps 742 mmHg 45%
    15:00 +21°C° 0 mm 4 mps 742 mmHg 48%
    16:00 +21°C° 0 mm 4 mps 741 mmHg 50%
    17:00 +20°C° 0 mm 3 mps 741 mmHg 53%
    18:00 +19°C° 0 mm 3 mps 741 mmHg 58%
    19:00 +17°C° 0 mm 3 mps 741 mmHg 63%
    20:00 +15°C° 0 mm 2 mps 741 mmHg 68%
    21:00 +15°C° 0 mm 2 mps 740 mmHg 68%
    22:00 +14°C° 0 mm 3 mps 740 mmHg 67%
    23:00 +14°C° 0 mm 3 mps 740 mmHg 67%

    Day after tomorrow, 28 April, Sunday

    Time Temperature Precipitation Wind Pressure Humidity
    00:00 +13°C° 0 mm 3 mps 740 mmHg 70%
    01:00 +13°C° 0 mm 3 mps 739 mmHg 74%
    02:00 +12°C° 0 mm 3 mps 739 mmHg 78%
    03:00 +13°C° 0 mm 2 mps 739 mmHg 82%
    04:00 +12°C° 0 mm 2 mps 739 mmHg 87%
    05:00 +12°C° 0 mm 1 mps 739 mmHg 91%
    06:00 +13°C° 0 mm 1 mps 739 mmHg 87%
    07:00 +14°C° 0 mm 1 mps 739 mmHg 83%
    08:00 +15°C° 0 mm 1 mps 739 mmHg 79%
    09:00 +18°C° 0 mm 1 mps 739 mmHg 75%
    10:00 +19°C° 0 mm 1 mps 739 mmHg 70%
    11:00 +20°C° 0 mm 1 mps 739 mmHg 65%
    12:00 +21°C° 0.1 mm 1 mps 739 mmHg 64%
    13:00 +21°C° 0.1 mm 1 mps 740 mmHg 64%
    14:00 +21°C° 0.1 mm 1 mps 740 mmHg 63%
    15:00 +19°C° 0.5 mm 3 mps 740 mmHg 67%
    16:00 +18°C° 0.5 mm 4 mps 740 mmHg 70%
    17:00 +16°C° 0.5 mm 6 mps 740 mmHg 74%
    18:00 +15°C° 0 mm 6 mps 741 mmHg 76%
    19:00 +13°C° 0 mm 6 mps 741 mmHg 79%
    20:00 +10°C° 0 mm 5 mps 742 mmHg 82%
    21:00 +10°C° 0 mm 5 mps 742 mmHg 79%
    22:00 +9°C° 0 mm 5 mps 743 mmHg 77%
    23:00 +8°C° 0 mm 5 mps 743 mmHg 75%

    29 April, Monday

    Time Temperature Precipitation Wind Pressure Humidity
    00:00 +8°C° 0 mm 6 mps 743 mmHg 75%
    01:00 +7°C° 0 mm 6 mps 744 mmHg 75%
    02:00 +5°C° 0 mm 6 mps 744 mmHg 75%
    03:00 +5°C° 0 mm 6 mps 744 mmHg 74%
    04:00 +4°C° 0 mm 6 mps 745 mmHg 74%
    05:00 +3°C° 0 mm 6 mps 745 mmHg 73%
    06:00 +4°C° 0 mm 6 mps 745 mmHg 69%
    07:00 +5°C° 0 mm 7 mps 746 mmHg 64%
    08:00 +6°C° 0 mm 7 mps 746 mmHg 60%
    09:00 +8°C° 0 mm 7 mps 746 mmHg 57%
    10:00 +9°C° 0 mm 7 mps 746 mmHg 54%
    11:00 +10°C° 0 mm 7 mps 746 mmHg 50%
    12:00 +11°C° 0 mm 7 mps 746 mmHg 49%
    13:00 +11°C° 0 mm 7 mps 746 mmHg 48%
    14:00 +13°C° 0 mm 6 mps 746 mmHg 47%
    15:00 +11°C° 0 mm 6 mps 746 mmHg 49%
    16:00 +11°C° 0 mm 6 mps 746 mmHg 51%
    17:00 +12°C° 0 mm 5 mps 746 mmHg 53%
    18:00 +9°C° 0 mm 5 mps 746 mmHg 57%
    19:00 +8°C° 0 mm 5 mps 746 mmHg 60%
    20:00 +6°C° 0 mm 5 mps 746 mmHg 63%
    21:00 +6°C° 0 mm 5 mps 746 mmHg 63%
    22:00 +5°C° 0 mm 5 mps 746 mmHg 64%
    23:00 +5°C° 0 mm 5 mps 746 mmHg 64%

    30 April, Tuesday

    Time Temperature Precipitation Wind Pressure Humidity
    00:00 +3°C° 0 mm 5 mps 745 mmHg 65%
    01:00 +3°C° 0 mm 5 mps 745 mmHg 67%
    02:00 +4°C° 0 mm 4 mps 745 mmHg 68%
    03:00 +3°C° 0 mm 5 mps 745 mmHg 68%
    04:00 +2°C° 0 mm 5 mps 745 mmHg 69%
    05:00 +2°C° 0 mm 5 mps 744 mmHg 69%
    06:00 +3°C° 0 mm 5 mps 744 mmHg 66%
    07:00 +5°C° 0 mm 6 mps 744 mmHg 63%
    08:00 +7°C° 0 mm 6 mps 744 mmHg 60%
    09:00 +8°C° 0 mm 6 mps 744 mmHg 58%
    10:00 +9°C° 0 mm 6 mps 744 mmHg 55%
    11:00 +10°C° 0 mm 6 mps 744 mmHg 53%
    12:00 +11°C° 0 mm 6 mps 743 mmHg 53%
    13:00 +11°C° 0 mm 6 mps 743 mmHg 53%
    14:00 +13°C° 0 mm 5 mps 742 mmHg 54%
    15:00 +12°C° 0 mm 5 mps 742 mmHg 58%
    16:00 +12°C° 0 mm 5 mps 742 mmHg 62%
    17:00 +11°C° 0 mm 4 mps 741 mmHg 67%
    18:00 +10°C° 0 mm 4 mps 741 mmHg 70%
    19:00 +9°C° 0 mm 3 mps 741 mmHg 73%
    20:00 +8°C° 0 mm 3 mps 741 mmHg 77%
    21:00 +8°C° 0 mm 3 mps 741 mmHg 77%
    22:00 +6°C° 0 mm 4 mps 741 mmHg 78%
    23:00 +6°C° 0 mm 4 mps 740 mmHg 79%

    1 May, Wednesday

    Time Temperature Precipitation Wind Pressure Humidity
    00:00 +5°C° 0 mm 4 mps 740 mmHg 79%
    01:00 +5°C° 0 mm 4 mps 740 mmHg 80%
    02:00 +5°C° 0 mm 5 mps 739 mmHg 80%
    03:00 +5°C° 0.1 mm 5 mps 739 mmHg 80%
    04:00 +5°C° 0.1 mm 5 mps 739 mmHg 80%
    05:00 +5°C° 0.1 mm 5 mps 739 mmHg 80%
    06:00 +4°C° 0 mm 6 mps 739 mmHg 76%
    07:00 +5°C° 0 mm 6 mps 739 mmHg 73%
    08:00 +6°C° 0 mm 7 mps 739 mmHg 69%
    09:00 +6°C° 0 mm 7 mps 739 mmHg 68%
    10:00 +8°C° 0 mm 7 mps 738 mmHg 67%
    11:00 +8°C° 0 mm 7 mps 738 mmHg 66%
    12:00 +8°C° 0 mm 7 mps 738 mmHg 67%
    13:00 +8°C° 0 mm 6 mps 738 mmHg 67%
    14:00 +7°C° 0 mm 6 mps 738 mmHg 68%
    15:00 +7°C° 0 mm 6 mps 738 mmHg 68%
    16:00 +7°C° 0 mm 6 mps 737 mmHg 69%
    17:00 +7°C° 0 mm 5 mps 737 mmHg 69%
    18:00 +6°C° 0 mm 5 mps 737 mmHg 72%
    19:00 +6°C° 0 mm 4 mps 737 mmHg 74%
    20:00 +5°C° 0 mm 3 mps 737 mmHg 77%
    21:00 +4°C° 0 mm 3 mps 736 mmHg 80%
    22:00 +3°C° 0 mm 3 mps 736 mmHg 83%
    23:00 +2°C° 0 mm 3 mps 736 mmHg 86%
    Show more